User: anonymous   Login
Location: Dürabuch
(48.2640°N, 11.2185°E)
Time: 16:30:08
(UTC+00:00)
Language:

FENGYUN 3A - Orbit

View from above orbital plane
View from above orbital plane
View from above satellite
View from above satellite

Ground track
Ground track

The orbit data is extracted from the following two-line orbital elements,

1 32958U 08026A   24206.89463384  .00000373  00000-0  19858-3 0  9999
2 32958  98.6050 152.9275 0008182 331.2321  28.8404 14.19129453837308
Epoch (UTC): 24 July 2024 21:28:16
Eccentricity: 0.0008182
inclination: 98.6050°
perigee height: 822 km
apogee height: 834 km
right ascension of ascending node: 152.9275°
argument of perigee: 331.2321°
revolutions per day: 14.19129453
mean anomaly at epoch: 28.8404°
orbit number at epoch: 83730

The dashed part of the orbit path shows where the satellite is in the earth's shadow,  

DLR